CW9927 Weather Reports


time (UTC)temp
C
wind
direction
speed
KPH
gust
KPH
rain 1hr
cm
rain 24hr
cm
rain mn
cm
humidity
%
barometer
mb
20260905104116 15 0.0 0.0 0.00 0.03 0.00 78 1014.9
20260905103116 15 0.0 0.0 0.00 0.05 0.00 78 1015.0
20260905102116 15 0.0 0.0 0.00 0.05 0.00 78 1015.1
20260905101116 15 0.0 0.0 0.00 0.08 0.00 77 1015.2
20260905100116 15 0.0 0.0 0.00 0.10 0.00 77 1015.1
20260905095116 16 0.0 0.0 0.00 0.10 0.00 77 1015.1
20260905094116 16 0.0 0.0 0.00 0.10 0.00 76 1015.1
20260905093116 16 0.0 0.0 0.00 0.10 0.00 76 1015.2
20260905092115 16 0.0 0.0 0.00 0.10 0.00 75 1015.2
20260905091116 16 0.0 0.0 0.00 0.10 0.00 74 1015.2
20260905090116 16 0.0 0.0 0.00 0.13 0.00 73 1015.3
20260905085137 16 0.0 0.0 0.00 0.13 0.00 73 1015.3
20260905084116 16 0.0 0.0 0.00 0.13 0.00 72 1015.3
20260905083116 16 0.0 0.0 0.00 0.13 0.00 72 1015.4
20260905082136 16 0.0 0.0 0.00 0.13 0.00 72 1015.4
20260905081116 16 0.0 0.0 0.00 0.13 0.00 72 1015.4
20260905080116 16 0.0 0.0 0.00 0.13 0.00 72 1015.5
20260905075116 16 0.0 0.0 0.00 0.13 0.00 71 1015.5
20260905074115 16 0.0 0.0 0.00 0.13 0.00 71 1015.5
20260905073136 16 0.0 0.0 0.00 0.13 0.00 71 1015.4
20260905072116 16 0.0 0.0 0.00 0.13 0.00 72 1015.3
20260905071116 16 0.0 0.0 0.00 0.13 0.00 72 1015.3
20260905065116 16 0.0 0.0 0.00 0.13 0.13 71 1015.1
20260905064116 16 0.0 0.0 0.00 0.13 0.13 71 1015.1
20260905063116 16 0.0 0.0 0.00 0.13 0.13 71 1015.0
20260905062136 16 0.0 0.0 0.00 0.13 0.13 72 1015.0
20260905061116 16 0.0 0.0 0.00 0.13 0.13 71 1015.0
20260905060156 16 0.0 0.0 0.00 0.13 0.13 71 1015.1
20260905055116 16 0.0 0.0 0.00 0.13 0.13 70 1014.9
20260905054136 16 0.0 0.0 0.00 0.13 0.13 70 1014.8
20260905053116 16 0.0 0.0 0.00 0.13 0.13 69 1014.7
20260905052116 17 0.0 0.0 0.00 0.13 0.13 68 1014.7
20260905051116 17 0.0 0.0 0.00 0.13 0.13 68 1014.8
20260905050135 17 0.0 0.0 0.00 0.13 0.13 68 1014.7
20260905045117 16 0.0 0.0 0.00 0.13 0.13 69 1014.8
20260905044117 16 0.0 0.0 0.00 0.13 0.13 67 1014.8
20260905043137 16 0.0 0.0 0.00 0.13 0.13 65 1014.6
20260905042117 17 0.0 0.0 0.00 0.13 0.13 65 1014.5
20260905041117 17 0.0 0.0 0.00 0.13 0.13 62 1014.4
20260905040118 17 0.0 0.0 0.00 0.13 0.13 61 1014.5
20260905035117 18 0.0 0.0 0.00 0.13 0.13 60 1014.3
20260905034117 18 0.0 0.0 0.00 0.13 0.13 59 1014.2
20260905033117 18 0.0 0.0 0.00 0.13 0.13 58 1014.0
20260905032120 18 0.0 0.0 0.00 0.13 0.13 57 1013.9
20260905031117 19 0.0 0.0 0.00 0.13 0.13 55 1013.8
20260905030117 20 0.0 0.0 0.00 0.13 0.13 55 1013.7
20260905025117 20 0.0 0.0 0.00 0.13 0.13 53 1013.7
20260905024140 20 0.0 0.0 0.00 0.13 0.13 52 1013.5
20260905023158 20 0.0 0.0 0.00 0.13 0.13 52 1013.4
20260905022118 21 0.0 0.0 0.00 0.13 0.13 50 1013.3
20260905021138 21 0.0 0.0 0.00 0.13 0.13 50 1013.2
20260905020138 21 0.0 0.0 0.00 0.13 0.13 50 1013.1
20260905015117 22 0.0 0.0 0.00 0.13 0.13 50 1013.2
20260905014118 22 0.0 0.0 0.00 0.13 0.13 49 1013.3
20260905013117 22 0.0 0.0 0.00 0.13 0.13 48 1013.3
20260905012117 23 0.0 0.0 0.00 0.13 0.13 48 1013.2
20260905011117 23 248 4.8 12.9 0.00 0.13 0.13 49 1013.3
20260905005317 23 0.0 0.0 0.00 0.13 0.13 50 1013.1
20260905004317 24 0.0 0.0 0.00 0.13 0.13 50 1013.0
20260905003317 24 0.0 0.0 0.00 0.13 0.13 49 1013.0
20260905002317 24 0.0 0.0 0.00 0.13 0.13 50 1013.0
20260905001317 25 0.0 0.0 0.00 0.13 0.13 49 1013.0
20260905000318 25 0.0 0.0 0.00 0.13 0.13 48 1013.0
20260904235317 25 0.0 0.0 0.00 0.13 0.13 48 1013.0
20260904234317 25 225 3.2 14.5 0.00 0.13 0.13 48 1013.0
20260904233317 25 0.0 0.0 0.00 0.13 0.13 49 1013.0
20260904232317 26 0.0 0.0 0.00 0.13 0.13 49 1012.9
20260904231317 26 0.0 0.0 0.00 0.13 0.13 51 1013.0
20260904230358 26 0.0 0.0 0.00 0.13 0.13 51 1013.0
20260904225317 26 0.0 0.0 0.00 0.13 0.13 50 1013.1
20260904224337 27 0.0 0.0 0.00 0.13 0.13 49 1013.1
20260904223338 27 0.0 0.0 0.00 0.13 0.13 49 1013.2
20260904222317 27 0.0 0.0 0.00 0.13 0.13 48 1013.4
20260904221317 27 0.0 0.0 0.00 0.13 0.13 48 1013.4
20260904220337 27 0.0 0.0 0.00 0.13 0.13 49 1013.5
20260904215317 27 0.0 0.0 0.00 0.13 0.13 49 1013.6
20260904214317 27 0.0 0.0 0.00 0.13 0.13 50 1013.7
20260904213317 26 0.0 0.0 0.00 0.13 0.13 49 1013.7
20260904212338 26 0.0 0.0 0.00 0.13 0.13 53 1013.7
20260904211317 26 0.0 0.0 0.00 0.13 0.13 53 1013.7
20260904210318 25 0.0 0.0 0.00 0.13 0.13 53 1013.9
20260904205338 25 0.0 0.0 0.00 0.13 0.13 54 1014.0
20260904204317 25 0.0 0.0 0.00 0.13 0.13 56 1014.0
20260904203337 24 0.0 0.0 0.00 0.13 0.13 59 1014.2
20260904202317 24 0.0 0.0 0.00 0.13 0.13 58 1014.2
20260904201317 24 0.0 0.0 0.00 0.13 0.13 60 1014.4
20260904200317 23 0.0 0.0 0.00 0.13 0.13 61 1014.4
20260904195317 23 0.0 0.0 0.00 0.13 0.13 61 1014.5
20260904194317 23 0.0 0.0 0.00 0.13 0.13 61 1014.5
20260904193337 23 0.0 0.0 0.00 0.13 0.13 61 1014.5
20260904192337 23 0.0 0.0 0.00 0.13 0.13 63 1014.6
20260904191317 22 0.0 0.0 0.00 0.13 0.13 65 1014.7
20260904190348 22 0.0 0.0 0.00 0.13 0.13 61 1014.7
20260904190217 22 0.0 0.0 0.00 0.13 0.13 62 1014.8
20260904185116 22 0.0 0.0 0.00 0.13 0.13 64 1014.8
20260904184116 21 0.0 0.0 0.00 0.13 0.13 66 1014.9
20260904183118 21 0.0 0.0 0.00 0.13 0.13 69 1014.9
20260904182116 20 0.0 0.0 0.00 0.13 0.13 72 1015.0
20260904181118 20 0.0 0.0 0.00 0.13 0.13 74 1015.0
20260904180116 19 0.0 0.0 0.00 0.13 0.13 77 1015.1
20260904175116 19 0.0 0.0 0.00 0.13 0.13 80 1015.1
20260904174116 19 0.0 0.0 0.00 0.13 0.13 84 1015.1
20260904173138 18 0.0 0.0 0.00 0.13 0.13 88 1015.1
20260904172116 17 0.0 0.0 0.00 0.13 0.13 90 1015.0
20260904171116 17 0.0 0.0 0.00 0.13 0.13 93 1015.1
20260904170116 16 0.0 0.0 0.00 0.13 0.13 95 1015.0
20260904165116 16 0.0 0.0 0.00 0.13 0.13 94 1015.0
20260904164116 16 0.0 0.0 0.00 0.13 0.13 95 1015.0
20260904163116 16 0.0 0.0 0.00 0.13 0.13 96 1015.0
20260904162156 16 0.0 0.0 0.00 0.13 0.13 96 1014.9
20260904161118 16 0.0 0.0 0.00 0.13 0.13 95 1014.9
20260904160116 16 0.0 0.0 0.00 0.13 0.13 96 1014.8
20260904155116 16 0.0 0.0 0.00 0.13 0.13 95 1014.8
20260904154116 16 0.0 0.0 0.00 0.13 0.13 96 1014.8
20260904153136 15 0.0 0.0 0.00 0.13 0.13 95 1014.7
20260904152118 15 0.0 0.0 0.00 0.13 0.13 95 1014.7
20260904151136 15 0.0 0.0 0.00 0.13 0.13 95 1014.7
20260904150118 15 0.0 0.0 0.00 0.13 0.13 95 1014.6
20260904145116 15 0.0 0.0 0.00 0.13 0.13 95 1014.5
20260904144116 15 0.0 0.0 0.00 0.13 0.13 95 1014.3
20260904143116 15 0.0 0.0 0.00 0.13 0.13 95 1014.2
20260904142116 15 0.0 0.0 0.00 0.13 0.13 95 1014.3
20260904141116 15 0.0 0.0 0.00 0.13 0.13 95 1014.1
20260904140116 15 0.0 0.0 0.00 0.13 0.13 95 1014.0
20260904135116 15 0.0 0.0 0.00 0.13 0.13 94 1013.8
20260904134116 15 0.0 0.0 0.03 0.13 0.13 94 1013.8
20260904133116 15 0.0 0.0 0.03 0.13 0.13 95 1013.6
20260904132116 15 0.0 0.0 0.03 0.13 0.13 95 1013.6
20260904131116 15 0.0 0.0 0.03 0.13 0.13 94 1013.4
20260904125317 15 0.0 0.0 0.03 0.13 0.13 94 1013.4
20260904124317 15 0.0 0.0 0.00 0.10 0.10 94 1013.3
20260904123317 15 0.0 0.0 0.00 0.10 0.10 94 1013.2
20260904122338 15 0.0 0.0 0.00 0.10 0.10 94 1013.3
20260904121337 15 0.0 0.0 0.00 0.10 0.10 94 1013.2
20260904120317 15 0.0 0.0 0.00 0.10 0.10 94 1013.2
20260904115317 15 0.0 0.0 0.00 0.10 0.10 94 1013.1
20260904114317 15 0.0 0.0 0.00 0.10 0.10 93 1013.1
20260904113317 15 0.0 0.0 0.03 0.10 0.10 93 1013.1
20260904112337 15 0.0 0.0 0.03 0.10 0.10 93 1013.0
20260904111317 15 0.0 0.0 0.05 0.10 0.10 93 1013.0
20260904110337 15 0.0 0.0 0.05 0.10 0.10 93 1012.9
20260904105317 15 0.0 0.0 0.08 0.10 0.10 92 1012.9